This is the latest recevied weather packets stored in our database for station/object VE6HFD-WX. If no packets are shown the sender has not sent any weather packets the latest 10 day(s).
| Time | Temp. | Humidity | Pressure | Rain* | Wind** | Luminosity | Snow |
|---|---|---|---|---|---|---|---|
| 1777846715 | 18.89° C | 29% | 1005.5 hPa | 0 mm | - | - | - |
| 1777846386 | 18.89° C | 29% | 1005.5 hPa | 0 mm | - | - | - |
| 1777846085 | 18.89° C | 29% | 1005.4 hPa | 0 mm | - | - | - |
| 1777845755 | 18.89° C | 29% | 1005.4 hPa | 0 mm | - | - | - |
| 1777845426 | 18.89° C | 29% | 1005.6 hPa | 0 mm | - | - | - |
| 1777845096 | 18.89° C | 28% | 1005.6 hPa | 0 mm | - | - | - |
| 1777844766 | 18.89° C | 28% | 1005.5 hPa | 0 mm | - | - | - |
| 1777844466 | 18.89° C | 28% | 1005.6 hPa | 0 mm | - | - | - |
| 1777844166 | 18.89° C | 28% | 1005.5 hPa | 0 mm | - | - | - |
| 1777843865 | 18.89° C | 28% | 1005.6 hPa | 0 mm | - | - | - |
| 1777843536 | 19.44° C | 27% | 1005.7 hPa | 0 mm | - | - | - |
| 1777843235 | 18.89° C | 28% | 1005.7 hPa | 0 mm | - | - | - |
| 1777842936 | 19.44° C | 26% | 1005.7 hPa | 0 mm | - | - | - |
| 1777842606 | 18.89° C | 29% | 1005.8 hPa | 0 mm | - | - | - |
| 1777842325 | 18.89° C | 28% | 1005.9 hPa | 0 mm | - | - | - |
| 1777842006 | 19.44° C | 28% | 1005.7 hPa | 0 mm | - | - | - |
| 1777841706 | 18.89° C | 29% | 1005.9 hPa | 0 mm | - | - | - |
| 1777841376 | 19.44° C | 28% | 1005.8 hPa | 0 mm | - | - | - |
| 1777841046 | 19.44° C | 28% | 1005.8 hPa | 0 mm | - | - | - |
| 1777840717 | 19.44° C | 29% | 1006 hPa | 0 mm | - | - | - |
| 1777840386 | 18.89° C | 29% | 1005.9 hPa | 0 mm | - | - | - |
| 1777840086 | 18.89° C | 29% | 1006 hPa | 0 mm | - | - | - |
| 1777839786 | 18.89° C | 29% | 1005.9 hPa | 0 mm | - | - | - |
| 1777839456 | 18.89° C | 31% | 1006 hPa | 0 mm | - | - | - |
| 1777839156 | 18.33° C | 32% | 1005.9 hPa | 0 mm | - | - | - |
* Rain latest hour (hover to see other rain measurements)
** Current wind speed in m/s (hover to see current wind gust speed)